Powrót do katalogu

STARLINK-5789

AktywnyŁącznośćVLEO
NORAD 56003·PAYLOAD·🇺🇸 United States

Wystrzelony Mar 24, 2023 z Cape Canaveral Space Force Station

Loading…

Następne Przeloty (najbliższe 24 godziny)

TLE

ŚwieżeSource: CelesTrak SupGP

Epoka: Sep 15, 2026, 02:26 UTC

1 56003C 23042T   26258.10187500 -.00039784  00000+0 -14406-2 0  2587
2 56003  43.0000  70.1602 0002438 249.2888 143.6677 15.27605453    10

Śledź STARLINK-5789 w czasie rzeczywistym z AllMySat

Download on the App Store